Tiempo cada hora Barra

Hoy, 28 Febrero, Domingo

Tiempo Temperatura Precipitaciones Viento Presión Humedad
00:00 +26°C° 0 mm 1 mps 723 mmHg 72%
01:00 +25°C° 0 mm 1 mps 723 mmHg 73%
02:00 +25°C° 0 mm 1 mps 723 mmHg 75%
03:00 +24°C° 0 mm 2 mps 722 mmHg 77%
04:00 +24°C° 0.1 mm 2 mps 723 mmHg 79%
05:00 +24°C° 0.1 mm 3 mps 723 mmHg 81%
06:00 +22°C° 0.1 mm 3 mps 723 mmHg 83%
07:00 +25°C° 0 mm 3 mps 724 mmHg 76%
08:00 +27°C° 0 mm 3 mps 724 mmHg 69%
09:00 +28°C° 0 mm 3 mps 725 mmHg 62%
10:00 +30°C° 0 mm 3 mps 724 mmHg 56%
11:00 +31°C° 0 mm 3 mps 724 mmHg 51%
12:00 +34°C° 0 mm 2 mps 723 mmHg 45%
13:00 +34°C° 0 mm 2 mps 722 mmHg 43%
14:00 +34°C° 0 mm 2 mps 721 mmHg 41%
15:00 +35°C° 0 mm 2 mps 721 mmHg 39%
16:00 +32°C° 0 mm 1 mps 720 mmHg 44%
17:00 +31°C° 0 mm 1 mps 720 mmHg 50%
18:00 +28°C° 0 mm 0 mps 720 mmHg 55%
19:00 +29°C° 0.1 mm 1 mps 721 mmHg 59%
20:00 +28°C° 0.1 mm 2 mps 721 mmHg 62%
21:00 +27°C° 0.1 mm 2 mps 722 mmHg 66%
22:00 +26°C° 0 mm 2 mps 722 mmHg 66%
23:00 +26°C° 0 mm 2 mps 722 mmHg 66%

Mañana, 1 Marzo, Lunes

Tiempo Temperatura Precipitaciones Viento Presión Humedad
00:00 +25°C° 0 mm 2 mps 722 mmHg 66%
01:00 +25°C° 0 mm 2 mps 722 mmHg 68%
02:00 +24°C° 0 mm 2 mps 721 mmHg 70%
03:00 +24°C° 0 mm 2 mps 721 mmHg 72%
04:00 +24°C° 0 mm 2 mps 721 mmHg 75%
05:00 +24°C° 0 mm 2 mps 722 mmHg 77%
06:00 +23°C° 0 mm 2 mps 722 mmHg 79%
07:00 +25°C° 0 mm 2 mps 723 mmHg 72%
08:00 +27°C° 0 mm 3 mps 723 mmHg 65%
09:00 +29°C° 0 mm 3 mps 724 mmHg 58%
10:00 +30°C° 0 mm 3 mps 724 mmHg 52%
11:00 +33°C° 0 mm 3 mps 723 mmHg 47%
12:00 +34°C° 0 mm 3 mps 723 mmHg 41%
13:00 +35°C° 0 mm 3 mps 722 mmHg 40%
14:00 +35°C° 0 mm 2 mps 721 mmHg 39%
15:00 +35°C° 0 mm 2 mps 720 mmHg 38%
16:00 +33°C° 0 mm 1 mps 720 mmHg 42%
17:00 +32°C° 0 mm 1 mps 720 mmHg 47%
18:00 +31°C° 0 mm 1 mps 720 mmHg 52%
19:00 +30°C° 0 mm 2 mps 721 mmHg 53%
20:00 +29°C° 0 mm 3 mps 722 mmHg 55%
21:00 +29°C° 0 mm 5 mps 722 mmHg 57%
22:00 +28°C° 0 mm 5 mps 722 mmHg 61%
23:00 +27°C° 0 mm 5 mps 723 mmHg 65%

Pasado mañana, 2 Marzo, Martes

Tiempo Temperatura Precipitaciones Viento Presión Humedad
00:00 +26°C° 0 mm 5 mps 723 mmHg 69%
01:00 +26°C° 0 mm 5 mps 723 mmHg 69%
02:00 +25°C° 0 mm 4 mps 722 mmHg 70%
03:00 +25°C° 0 mm 4 mps 722 mmHg 71%
04:00 +25°C° 0 mm 4 mps 723 mmHg 71%
05:00 +25°C° 0 mm 4 mps 723 mmHg 71%
06:00 +25°C° 0 mm 4 mps 723 mmHg 71%
07:00 +26°C° 0 mm 4 mps 724 mmHg 66%
08:00 +27°C° 0 mm 4 mps 725 mmHg 62%
09:00 +29°C° 0 mm 4 mps 725 mmHg 57%
10:00 +30°C° 0 mm 4 mps 725 mmHg 53%
11:00 +33°C° 0 mm 3 mps 725 mmHg 48%
12:00 +34°C° 0 mm 3 mps 725 mmHg 43%
13:00 +34°C° 0 mm 3 mps 724 mmHg 42%
14:00 +34°C° 0 mm 2 mps 723 mmHg 41%
15:00 +35°C° 0 mm 2 mps 722 mmHg 40%
16:00 +32°C° 0 mm 1 mps 722 mmHg 44%
17:00 +31°C° 0 mm 1 mps 722 mmHg 48%
18:00 +30°C° 0 mm 1 mps 722 mmHg 53%
19:00 +29°C° 0 mm 1 mps 723 mmHg 56%
20:00 +29°C° 0 mm 2 mps 723 mmHg 58%
21:00 +28°C° 0 mm 2 mps 724 mmHg 61%
22:00 +27°C° 0.1 mm 2 mps 724 mmHg 67%
23:00 +26°C° 0.1 mm 2 mps 724 mmHg 72%

3 Marzo, Miércoles

Tiempo Temperatura Precipitaciones Viento Presión Humedad
00:00 +25°C° 0.1 mm 1 mps 725 mmHg 78%
01:00 +25°C° 0 mm 2 mps 724 mmHg 79%
02:00 +24°C° 0 mm 2 mps 724 mmHg 80%
03:00 +24°C° 0 mm 2 mps 724 mmHg 80%
04:00 +23°C° 0 mm 2 mps 724 mmHg 82%
05:00 +23°C° 0 mm 2 mps 725 mmHg 83%
06:00 +21°C° 0 mm 2 mps 725 mmHg 84%
07:00 +25°C° 0 mm 2 mps 726 mmHg 75%
08:00 +27°C° 0 mm 3 mps 726 mmHg 66%
09:00 +29°C° 0 mm 3 mps 727 mmHg 58%
10:00 +30°C° 0 mm 3 mps 727 mmHg 52%
11:00 +33°C° 0 mm 3 mps 726 mmHg 47%
12:00 +34°C° 0 mm 3 mps 726 mmHg 41%
13:00 +35°C° 0 mm 2 mps 725 mmHg 40%
14:00 +35°C° 0 mm 2 mps 724 mmHg 40%
15:00 +35°C° 0 mm 2 mps 723 mmHg 39%
16:00 +32°C° 0 mm 1 mps 723 mmHg 45%
17:00 +31°C° 0 mm 1 mps 723 mmHg 51%
18:00 +29°C° 0 mm 1 mps 723 mmHg 57%
19:00 +29°C° 0 mm 1 mps 724 mmHg 58%
20:00 +28°C° 0 mm 1 mps 724 mmHg 59%
21:00 +27°C° 0 mm 1 mps 725 mmHg 60%
22:00 +27°C° 0 mm 2 mps 725 mmHg 62%
23:00 +26°C° 0 mm 2 mps 725 mmHg 65%

4 Marzo, Jueves

Tiempo Temperatura Precipitaciones Viento Presión Humedad
00:00 +26°C° 0 mm 2 mps 725 mmHg 67%
01:00 +25°C° 0 mm 2 mps 725 mmHg 70%
02:00 +25°C° 0 mm 2 mps 725 mmHg 72%
03:00 +25°C° 0 mm 3 mps 724 mmHg 75%
04:00 +24°C° 0 mm 2 mps 725 mmHg 77%
05:00 +24°C° 0 mm 2 mps 725 mmHg 79%
06:00 +23°C° 0 mm 2 mps 725 mmHg 81%
07:00 +26°C° 0 mm 2 mps 726 mmHg 73%
08:00 +28°C° 0 mm 2 mps 726 mmHg 65%
09:00 +30°C° 0 mm 2 mps 727 mmHg 56%
10:00 +33°C° 0 mm 3 mps 726 mmHg 53%
11:00 +34°C° 0 mm 3 mps 726 mmHg 49%
12:00 +35°C° 0 mm 3 mps 725 mmHg 45%
13:00 +35°C° 0 mm 3 mps 724 mmHg 45%
14:00 +35°C° 0 mm 2 mps 723 mmHg 45%
15:00 +35°C° 0 mm 2 mps 723 mmHg 45%
16:00 +34°C° 0 mm 2 mps 723 mmHg 49%
17:00 +32°C° 0 mm 2 mps 722 mmHg 54%
18:00 +30°C° 0 mm 2 mps 722 mmHg 58%
19:00 +29°C° 0.3 mm 2 mps 723 mmHg 64%
20:00 +27°C° 0.3 mm 2 mps 723 mmHg 71%
21:00 +26°C° 0.3 mm 1 mps 724 mmHg 77%
22:00 +25°C° 0.9 mm 1 mps 724 mmHg 80%
23:00 +25°C° 0.9 mm 1 mps 724 mmHg 84%

5 Marzo, Viernes

Tiempo Temperatura Precipitaciones Viento Presión Humedad
00:00 +24°C° 0.9 mm 1 mps 724 mmHg 87%
01:00 +24°C° 0.1 mm 1 mps 724 mmHg 88%
02:00 +24°C° 0.1 mm 2 mps 724 mmHg 88%
03:00 +24°C° 0.1 mm 2 mps 723 mmHg 88%
04:00 +23°C° 0 mm 2 mps 724 mmHg 89%
05:00 +23°C° 0 mm 1 mps 724 mmHg 90%
06:00 +23°C° 0 mm 1 mps 724 mmHg 91%
07:00 +25°C° 0 mm 2 mps 724 mmHg 82%
08:00 +27°C° 0 mm 3 mps 725 mmHg 72%
09:00 +29°C° 0 mm 3 mps 726 mmHg 63%
10:00 +30°C° 0 mm 3 mps 725 mmHg 58%
11:00 +33°C° 0 mm 3 mps 725 mmHg 54%
12:00 +34°C° 0 mm 3 mps 724 mmHg 50%
13:00 +34°C° 0 mm 3 mps 723 mmHg 47%
14:00 +35°C° 0 mm 2 mps 723 mmHg 44%
15:00 +34°C° 0 mm 1 mps 722 mmHg 41%
16:00 +33°C° 0 mm 1 mps 722 mmHg 47%
17:00 +31°C° 0 mm 1 mps 722 mmHg 52%
18:00 +28°C° 0 mm 0 mps 722 mmHg 58%
19:00 +29°C° 0.1 mm 1 mps 722 mmHg 61%
20:00 +28°C° 0.1 mm 1 mps 723 mmHg 64%
21:00 +27°C° 0.1 mm 1 mps 723 mmHg 68%
22:00 +26°C° 0.1 mm 1 mps 723 mmHg 71%
23:00 +26°C° 0.1 mm 1 mps 723 mmHg 74%
Mostrar más

Necesitamos Su Consentimiento

Meteoprog y nuestros Proveedores de Servicios pueden almacenar y acceder a sus datos personales como cookies, identificadores de dispositivo u otras tecnologías similares de su dispositivo y procesar dichos datos para personalizar contenido y anuncios, además de ofrecer funciones de redes sociales y analizar el tráfico.

  • Almacenar y/o acceder a información en su dispositivo

    Se puede almacenar o acceder a cookies, identificadores de dispositivo u otra información de su dispositivo para los fines anteriormente indicados.

  • Anuncios y contenido personalizados, medición de anuncios y contenido, percepciones del público, y desarrollo de productos

    Los anuncios y el contenido pueden personalizarse en base a su perfil. Se pueden añadir más datos para personalizar mejor los anuncios y contenidos. Se puede medir el rendimiento de los anuncios y contenidos. Se puede obtener la percepción sobre el público que ha visto los anuncios y contenidos. Dichos datos pueden usarse para desarrollar o mejorar la experiencia del usuario, sistemas y software.

Al hacer clic en ‘Estoy De Acuerdo’ usted permitirá el uso de las cookies, identificadores de dispositivo, balizas web u otras tecnologías similares indicadas. Su configuración puede cambiarse desde el navegador de su dispositivo.

Para ciertos fines, los intereses legítimos pueden ser considerados por encima del consentimiento. Puede leer más sobre ello en nuestra Política de Privacidad y Cookies.